Location: T. Spence Memorial Observatory
(32.7356°N, 82.2098°W)
Time: 18:24:51
(UTC-04:00)

Daily predictions for brighter satellites

Satellite Brightness Start Highest point End
(mag) Time Altitude Azimuth Time Altitude Azimuth Time Altitude Azimuth
ATLAS 3B CENTAUR R/B 4.2 19:27:10 10° SW 19:34:14 54° SSE 19:53:44 10° E
COSMO-SKYMED 1 3.5 19:47:15 10° N 19:51:30 54° WNW 19:55:43 10° SSW
ISS -3.6 19:50:32 10° SSW 19:53:41 49° SE 19:56:52 10° ENE
Cosmos 1726 Rocket 3.9 19:51:13 10° SSW 19:55:34 72° W 19:59:53 10° N
Thor Agena Rocket 3.6 19:50:24 10° NNE 19:55:35 63° ESE 20:00:40 10° S
Cosmos 1758 Rocket 3.6 19:52:08 10° N 19:56:38 83° E 20:01:07 10° S
USA 234 3.3 19:51:24 10° SE 19:57:57 84° NE 20:04:32 10° NW
CZ-4 R/B 4.1 19:54:44 10° SSW 19:58:10 25° W 20:01:40 10° NW
ALOS 2.3 19:55:16 10° SSE 19:59:51 62° ENE 20:04:28 10° N
NOAA 12 4.0 19:59:35 10° SSE 20:04:48 81° ENE 20:10:04 10° N
SJ-6B 3.7 20:02:34 10° SE 20:06:01 28° ENE 20:09:24 10° NNE
Cosmos 2181 Rocket 4.0 19:59:51 10° N 20:06:02 89° ENE 20:12:09 10° S
SPOT 3 Rocket 4.0 20:01:14 10° S 20:06:20 65° WSW 20:11:28 10° NNW
Cosmos 990 Rocket 4.0 20:02:38 10° NNW 20:07:49 89° WSW 20:12:56 10° SSE
Cosmos 1898 Rocket 4.4 20:03:03 10° NNW 20:08:04 52° WSW 20:13:04 10° S
FENGYUN 3A 3.6 20:03:09 10° SSE 20:08:28 74° ENE 20:13:50 10° N
SJ 16-02 3.2 20:06:45 10° NE 20:08:44 13° ENE 20:09:12 13° ENE
Cosmos 1656 Rocket 3.7 20:03:42 10° NNW 20:09:15 58° ENE 20:14:41 10° SSE
Cosmos 1953 4.3 20:11:48 12° ENE 20:11:48 12° ENE 20:12:25 10° NE
BREEZE-M DEB (TANK) 3.5 20:08:16 10° S 20:10:40 18° SE 20:11:12 17° SE
H-2A R/B 3.2 20:07:44 10° SE 20:11:08 36° ENE 20:14:36 10° N
Cosmos 2074 Rocket 3.9 20:06:12 10° S 20:12:20 67° E 20:18:29 10° NNE
FREGAT/IRIS 2.6 20:14:37 10° SSE 20:17:34 56° ENE 20:20:33 10° N
Cosmos 2228 3.6 20:13:20 10° SSW 20:17:39 61° W 20:21:57 10° N
Cosmos 1125 Rocket 4.3 20:14:05 10° N 20:18:47 31° ENE 20:21:54 18° ESE
Geosat 4.0 20:16:54 10° SE 20:21:49 59° ENE 20:26:46 10° NNW
Envisat 4.3 20:21:01 18° E 20:21:56 19° ENE 20:25:26 10° NNE
Cosmos 1544 3.0 20:19:45 10° S 20:23:18 61° E 20:26:52 10° NNE
Cosmos 1356 Rocket 3.4 20:20:27 10° N 20:24:45 72° E 20:29:02 10° SSE
Cosmos 1900 4.3 20:24:42 10° SSW 20:29:42 68° ESE 20:34:49 10° NNE
COSMOS 2406 3.6 20:25:15 10° SSW 20:30:54 67° WNW 20:36:37 10° NNE
Meteor 1-22 Rocket 4.3 20:25:48 10° S 20:31:34 85° W 20:37:07 10° N
Cosmos 1766 3.5 20:31:04 10° SSW 20:34:59 72° W 20:38:53 10° N
Cosmos 1812 Rocket 3.5 20:31:32 10° S 20:35:53 60° E 20:40:17 10° NNE
Resurs 01 Rocket 2.3 20:38:07 31° E 20:38:33 32° ENE 20:42:28 10° N
Meteor 2-5 Rocket 4.4 20:33:21 10° NNW 20:39:02 58° W 20:44:35 10° S
Meteor 2-8 Rocket 4.4 20:35:26 10° N 20:41:30 63° E 20:47:30 10° SSE
In-Cosmos 22 4.2 20:36:45 10° N 20:42:29 73° E 20:48:14 10° SSE
MOS 1-B Rocket 4.5 20:40:08 25° ESE 20:42:48 37° ENE 20:48:00 10° N
NOSS 3-1 (A) 4.1 20:36:20 10° NNW 20:44:13 75° ENE 20:51:13 17° SE
GP-B 3.3 20:40:31 10° NNE 20:44:47 45° E 20:46:08 34° SE
FengYun 1-2 T 4.3 20:39:28 10° SSE 20:45:05 84° WSW 20:50:41 10° NNW
Nadezhda 3 Rocket 4.2 20:40:40 10° N 20:46:41 47° E 20:50:15 23° SE
SL-27 R/B 2.4 20:45:01 10° SSW 20:48:35 90° NE 20:52:14 10° NNE
Chunghua 1 4.5 20:44:50 10° WSW 20:48:40 86° NNW 20:49:27 55° ENE
Meteor 2-19 Rocket 4.3 20:42:53 10° S 20:48:55 79° E 20:54:59 10° N
Cosmos 540 Rocket 4.3 20:45:32 10° SSW 20:50:28 52° WNW 20:55:28 10° N
NOSS 3-1 (C) 4.3 20:44:19 10° NNW 20:52:14 76° WSW 21:00:46 10° SSE
Cosmos 2285 Rocket 4.3 20:46:35 10° SSE 20:52:31 42° E 20:58:29 10° NNE
Cosmos 1758 3.1 20:50:51 10° S 20:54:50 69° E 20:58:49 10° NNE
HJ-1C 3.9 20:54:26 24° S 20:56:14 58° W 20:59:32 10° NNW
OAO 3 Rocket 4.1 20:57:32 10° SW 21:01:22 33° SSE 21:01:22 33° SSE
Cosmos 1805 4.1 21:03:03 10° SSW 21:06:49 49° W 21:10:36 10° N
CZ-2D R/B 3.5 21:13:42 66° W 21:13:42 66° W 21:17:18 10° NNW
Cosmos 292 Rocket 4.0 21:09:31 10° SSW 21:14:19 68° WNW 21:19:10 10° N
ATLAS 5 CENTAUR R/B 3.9 21:13:24 10° SSW 21:13:49 12° S 21:13:49 12° S
Yuri Rocket 4.1 21:23:43 10° WSW 21:26:50 36° SW 21:26:50 36° SW
Spot 2 Rocket 3.4 21:28:02 83° WSW 21:28:02 83° WSW 21:33:06 10° NNW
OAO 3 Copernicus 4.4 21:24:39 10° WNW 21:29:13 70° NW 21:29:13 70° NW
ISS -0.9 21:28:24 10° WNW 21:30:16 15° NW 21:30:16 15° NW
Milstar 3 Cent rocket 2.6 21:26:45 10° WSW 21:30:39 43° SW 21:30:39 43° SW
Gbstr 26 Del rocket 4.4 21:30:50 10° SW 21:33:42 38° SSW 21:33:42 38° SSW
Cosmos 1953 4.4 21:47:22 25° NW 21:47:22 25° NW 21:49:53 10° NNW
SJ 16-02 2.9 21:43:22 10° NNW 21:46:14 34° WNW 21:46:14 34° WNW
Envisat 4.2 22:01:13 38° W 22:01:13 38° W 22:05:22 10° NNW
Resurs 01 Rocket 4.2 22:15:43 17° W 22:15:43 17° W 22:18:02 10° NW
FALCON 9 R/B 3.6 22:13:39 10° WNW 22:15:43 36° W 22:15:43 36° W
ATLAS 2AS CENTAUR R/B 3.6 22:18:21 10° NNW 22:23:48 46° N 22:23:48 46° N
